Orlando International, FL

9:20 PM EDT on June 26, 2017 (GMT -0400)
Orlando International

Weather History for KMCO - June, 2012

Change the Weather History Date:

Monday, June 18, 2012

  Actual Average Record
Temperature  
Mean Temperature 78 °F 82 °F  
Max Temperature 88 °F 91 °F 101 °F (1921)
Min Temperature 68 °F 73 °F 62 °F (1933)
Degree Days  
Heating Degree Days 0 0  
Month to date heating degree days 0 0  
Since 1 June heating degree days 0 0  
Since 1 July heating degree days 313 571  
Cooling Degree Days 13 17  
Month to date cooling degree days 279 286  
Year to date cooling degree days 1318 1087  
Since 1 June cooling degree days 279 286  
Growing Degree Days 28 (Base 50)    
Moisture  
Dew Point 67 °F    
Average Humidity 73    
Maximum Humidity 100    
Minimum Humidity 46    
Precipitation  
Precipitation T in 0.27 in 3.11 in (1972)
Month to date precipitation 5.64 4.52  
Year to date precipitation 15.01 19.15  
Sea Level Pressure  
Sea Level Pressure 30.03 in    
Wind  
Wind Speed 7 mph (ENE)    
Max Wind Speed 17 mph    
Max Gust Speed 21 mph    
Visibility 10 miles    
Events      
T = Trace of Precipitation, MM = Missing Value Source: NWS Daily Summary

Daily Weather History Graph

Daily Weather History Graph

Search for Another Location

Airport or City:

Trip Planner

Search our weather history database for the weather conditions in past years. The results will help you decide how hot, cold, wet, or windy it might be!

Date:

Astronomy

Jun. 18, 2012 Rise Set
Actual Time 6:27 AM EDT 8:25 PM EDT
Civil Twilight 6:01 AM EDT 8:52 PM EDT
Nautical Twilight 5:28 AM EDT 9:24 PM EDT
Astronomical Twilight 4:53 AM EDT 9:59 PM EDT
Moon 5:38 AM EDT (6/18) 7:45 PM EDT (6/18)
Length of Visible Light 14h 50m
Length of Day
13h 57m
Waning Crescent, 1% of the Moon is Illuminated
Jun 18
Waning Crescent
Jun 19
New
Jun 26
First Quarter
Jul 3
Full
Jul 10
Last Quarter

Hourly Weather History & Observations

Time (EDT) Temp. Heat Index Dew Point Humidity Pressure Visibility Wind Dir Wind Speed Gust Speed Precip Events Conditions
12:53 AM 73.0 °F - 68.0 °F 84% 30.02 in 10.0 mi ENE 4.6 mph - N/A   Clear
1:53 AM 73.4 °F - 68.0 °F 83% 30.02 in 10.0 mi Calm Calm - N/A   Partly Cloudy
2:53 AM 71.6 °F - 68.0 °F 88% 30.01 in 10.0 mi Calm Calm - N/A   Partly Cloudy
3:53 AM 70.0 °F - 66.9 °F 90% 29.99 in 10.0 mi Calm Calm - N/A   Clear
4:53 AM 69.8 °F - 68.0 °F 94% 30.00 in 10.0 mi North 3.5 mph - N/A   Partly Cloudy
5:53 AM 71.1 °F - 69.1 °F 93% 30.00 in 10.0 mi North 3.5 mph - N/A   Partly Cloudy
6:53 AM 70.0 °F - 69.1 °F 97% 30.01 in 10.0 mi North 4.6 mph - N/A   Scattered Clouds
7:53 AM 72.0 °F - 69.1 °F 91% 30.03 in 10.0 mi NE 6.9 mph - N/A   Scattered Clouds
8:53 AM 75.2 °F - 69.8 °F 83% 30.05 in 10.0 mi ENE 4.6 mph - N/A   Scattered Clouds
9:53 AM 81.0 °F 83.3 °F 66.9 °F 62% 30.05 in 10.0 mi East 5.8 mph - N/A   Scattered Clouds
10:53 AM 80.6 °F 82.7 °F 66.2 °F 61% 30.06 in 10.0 mi ESE 9.2 mph - N/A   Scattered Clouds
11:53 AM 82.0 °F 83.8 °F 64.9 °F 56% 30.06 in 10.0 mi ENE 5.8 mph - N/A   Scattered Clouds
12:53 PM 84.2 °F 85.6 °F 64.4 °F 51% 30.05 in 10.0 mi East 4.6 mph 16.1 mph N/A   Scattered Clouds
1:53 PM 87.1 °F 88.3 °F 64.0 °F 46% 30.04 in 10.0 mi East 11.5 mph 18.4 mph N/A   Scattered Clouds
2:53 PM 87.1 °F 88.3 °F 64.0 °F 46% 30.03 in 10.0 mi East 12.7 mph 19.6 mph N/A   Mostly Cloudy
4:53 PM 84.9 °F 86.1 °F 64.0 °F 49% 30.02 in 10.0 mi ENE 12.7 mph - N/A   Mostly Cloudy
5:53 PM 84.2 °F 86.6 °F 66.2 °F 55% 30.02 in 10.0 mi East 13.8 mph - N/A   Mostly Cloudy
6:53 PM 80.6 °F 82.7 °F 66.2 °F 61% 30.03 in 10.0 mi ENE 13.8 mph - N/A   Mostly Cloudy
7:53 PM 79.0 °F - 66.0 °F 64% 30.04 in 10.0 mi East 10.4 mph - N/A   Scattered Clouds
8:53 PM 78.1 °F - 66.0 °F 66% 30.05 in 10.0 mi East 9.2 mph - N/A   Scattered Clouds
9:53 PM 75.2 °F - 66.2 °F 73% 30.06 in 10.0 mi East 6.9 mph - N/A   Partly Cloudy
10:53 PM 73.9 °F - 68.0 °F 82% 30.07 in 10.0 mi East 8.1 mph - N/A   Clear
11:53 PM 73.0 °F - 68.0 °F 84% 30.09 in 10.0 mi ESE 6.9 mph - N/A   Partly Cloudy